Year,Month,Day,Hour,Minute,Value (Times are PST for temperature in C)
2013,06,23,00,00,14.50
2013,06,23,00,01,14.40
2013,06,23,00,02,14.40
2013,06,23,00,03,14.40
2013,06,23,00,04,14.40
2013,06,23,00,05,14.40
2013,06,23,00,06,14.40
2013,06,23,00,07,14.40
2013,06,23,00,08,14.40
2013,06,23,00,09,14.40
2013,06,23,00,10,14.30
2013,06,23,00,11,14.30
2013,06,23,00,12,14.30
2013,06,23,00,13,14.30
2013,06,23,00,14,14.30
2013,06,23,00,15,14.20
2013,06,23,00,16,14.20
2013,06,23,00,17,14.20
2013,06,23,00,18,14.20
2013,06,23,00,19,14.20
2013,06,23,00,20,14.10
2013,06,23,00,21,14.10
2013,06,23,00,22,14.10
2013,06,23,00,23,14.00
2013,06,23,00,24,14.00
2013,06,23,00,25,14.00
2013,06,23,00,26,13.90
2013,06,23,00,27,13.90
2013,06,23,00,28,13.90
2013,06,23,00,29,13.90
2013,06,23,00,30,13.80
2013,06,23,00,31,13.80
2013,06,23,00,32,13.80
2013,06,23,00,33,13.80
2013,06,23,00,34,13.80
2013,06,23,00,35,13.80
2013,06,23,00,36,13.70
2013,06,23,00,37,13.70
2013,06,23,00,38,13.70
2013,06,23,00,39,13.70
2013,06,23,00,40,13.70
2013,06,23,00,41,13.70
2013,06,23,00,42,13.60
2013,06,23,00,43,13.60
2013,06,23,00,44,13.60
2013,06,23,00,45,13.60
2013,06,23,00,46,13.50
2013,06,23,00,47,13.50
2013,06,23,00,48,13.40
2013,06,23,00,49,13.40
2013,06,23,00,50,13.40
2013,06,23,00,51,13.40
2013,06,23,00,52,13.30
2013,06,23,00,53,13.30
2013,06,23,00,54,13.30
2013,06,23,00,55,13.30
2013,06,23,00,56,13.30
2013,06,23,00,57,13.20
2013,06,23,00,58,13.20
2013,06,23,00,59,13.20
2013,06,23,01,00,13.20
2013,06,23,01,01,13.20
2013,06,23,01,02,13.20
2013,06,23,01,03,13.20
2013,06,23,01,04,13.20
2013,06,23,01,05,13.20
2013,06,23,01,06,13.10
2013,06,23,01,07,13.10
2013,06,23,01,08,13.10
2013,06,23,01,09,13.10
2013,06,23,01,10,13.10
2013,06,23,01,11,13.10
2013,06,23,01,12,13.10
2013,06,23,01,13,13.10
2013,06,23,01,14,13.10
2013,06,23,01,15,13.10
2013,06,23,01,16,13.10
2013,06,23,01,17,13.10
2013,06,23,01,18,13.10
2013,06,23,01,19,13.00
2013,06,23,01,20,13.00
2013,06,23,01,21,13.00
2013,06,23,01,22,12.90
2013,06,23,01,23,12.90
2013,06,23,01,24,12.90
2013,06,23,01,25,12.90
2013,06,23,01,26,12.90
2013,06,23,01,27,12.80
2013,06,23,01,28,12.80
2013,06,23,01,29,12.80
2013,06,23,01,30,12.80
2013,06,23,01,31,12.80
2013,06,23,01,32,12.80
2013,06,23,01,33,12.80
2013,06,23,01,34,12.80
2013,06,23,01,35,12.80
2013,06,23,01,36,12.80
2013,06,23,01,37,12.80
2013,06,23,01,38,12.80
2013,06,23,01,39,12.80
2013,06,23,01,40,12.80
2013,06,23,01,41,12.80
2013,06,23,01,42,12.80
2013,06,23,01,43,12.70
2013,06,23,01,44,12.70
2013,06,23,01,45,12.70
2013,06,23,01,46,12.70
2013,06,23,01,47,12.70
2013,06,23,01,48,12.70
2013,06,23,01,49,12.70
2013,06,23,01,50,12.70
2013,06,23,01,51,12.70
2013,06,23,01,52,12.70
2013,06,23,01,53,12.70
2013,06,23,01,54,12.70
2013,06,23,01,55,12.70
2013,06,23,01,56,12.60
2013,06,23,01,57,12.60
2013,06,23,01,58,12.60
2013,06,23,01,59,12.60
2013,06,23,02,00,12.50
2013,06,23,02,01,12.50
2013,06,23,02,02,12.50
2013,06,23,02,03,12.40
2013,06,23,02,04,12.40
2013,06,23,02,05,12.40
2013,06,23,02,06,12.40
2013,06,23,02,07,12.40
2013,06,23,02,08,12.40
2013,06,23,02,09,12.40
2013,06,23,02,10,12.40
2013,06,23,02,11,12.40
2013,06,23,02,12,12.30
2013,06,23,02,13,12.30
2013,06,23,02,14,12.30
2013,06,23,02,15,12.30
2013,06,23,02,16,12.30
2013,06,23,02,17,12.30
2013,06,23,02,18,12.30
2013,06,23,02,19,12.30
2013,06,23,02,20,12.30
2013,06,23,02,21,12.30
2013,06,23,02,22,12.30
2013,06,23,02,23,12.20
2013,06,23,02,24,12.20
2013,06,23,02,25,12.20
2013,06,23,02,26,12.20
2013,06,23,02,27,12.20
2013,06,23,02,28,12.20
2013,06,23,02,29,12.20
2013,06,23,02,30,12.20
2013,06,23,02,31,12.20
2013,06,23,02,32,12.20
2013,06,23,02,33,12.20
2013,06,23,02,34,12.20
2013,06,23,02,35,12.20
2013,06,23,02,36,12.20
2013,06,23,02,37,12.20
2013,06,23,02,38,12.20
2013,06,23,02,39,12.20
2013,06,23,02,40,12.20
2013,06,23,02,41,12.20
2013,06,23,02,42,12.20
2013,06,23,02,43,12.10
2013,06,23,02,44,12.10
2013,06,23,02,45,12.10
2013,06,23,02,46,12.10
2013,06,23,02,47,12.10
2013,06,23,02,48,12.10
2013,06,23,02,49,12.10
2013,06,23,02,50,12.10
2013,06,23,02,51,12.10
2013,06,23,02,52,12.10
2013,06,23,02,53,12.10
2013,06,23,02,54,12.10
2013,06,23,02,55,12.10
2013,06,23,02,56,12.10
2013,06,23,02,57,12.10
2013,06,23,02,58,12.10
2013,06,23,02,59,12.10
2013,06,23,03,00,12.10
2013,06,23,03,01,12.10
2013,06,23,03,02,12.10
2013,06,23,03,03,12.10
2013,06,23,03,04,12.10
2013,06,23,03,05,12.00
2013,06,23,03,06,12.00
2013,06,23,03,07,12.00
2013,06,23,03,08,12.00
2013,06,23,03,09,12.00
2013,06,23,03,10,12.00
2013,06,23,03,11,12.00
2013,06,23,03,12,12.00
2013,06,23,03,13,11.90
2013,06,23,03,14,11.90
2013,06,23,03,15,12.00
2013,06,23,03,16,12.00
2013,06,23,03,17,12.00
2013,06,23,03,18,12.10
2013,06,23,03,19,12.10
2013,06,23,03,20,12.10
2013,06,23,03,21,12.10
2013,06,23,03,22,12.20
2013,06,23,03,23,12.20
2013,06,23,03,24,12.20
2013,06,23,03,25,12.20
2013,06,23,03,26,12.20
2013,06,23,03,27,12.20
2013,06,23,03,28,12.20
2013,06,23,03,29,12.20
2013,06,23,03,30,12.10
2013,06,23,03,31,12.10
2013,06,23,03,32,12.10
2013,06,23,03,33,12.00
2013,06,23,03,34,11.90
2013,06,23,03,35,11.90
2013,06,23,03,36,11.90
2013,06,23,03,37,11.80
2013,06,23,03,38,11.80
2013,06,23,03,39,11.80
2013,06,23,03,40,11.80
2013,06,23,03,41,11.70
2013,06,23,03,42,11.70
2013,06,23,03,43,11.70
2013,06,23,03,44,11.60
2013,06,23,03,45,11.60
2013,06,23,03,46,11.60
2013,06,23,03,47,11.60
2013,06,23,03,48,11.60
2013,06,23,03,49,11.60
2013,06,23,03,50,11.60
2013,06,23,03,51,11.50
2013,06,23,03,52,11.50
2013,06,23,03,53,11.50
2013,06,23,03,54,11.50
2013,06,23,03,55,11.50
2013,06,23,03,56,11.50
2013,06,23,03,57,11.40
2013,06,23,03,58,11.40
2013,06,23,03,59,11.40
2013,06,23,04,00,11.40
2013,06,23,04,01,11.40
2013,06,23,04,02,11.40
2013,06,23,04,03,11.40
2013,06,23,04,04,11.40
2013,06,23,04,05,11.40
2013,06,23,04,06,11.40
2013,06,23,04,07,11.40
2013,06,23,04,08,11.40
2013,06,23,04,09,11.40
2013,06,23,04,10,11.40
2013,06,23,04,11,11.30
2013,06,23,04,12,11.30
2013,06,23,04,13,11.30
2013,06,23,04,14,11.30
2013,06,23,04,15,11.30
2013,06,23,04,16,11.30
2013,06,23,04,17,11.30
2013,06,23,04,18,11.30
2013,06,23,04,19,11.30
2013,06,23,04,20,11.30
2013,06,23,04,21,11.30
2013,06,23,04,22,11.30
2013,06,23,04,23,11.30
2013,06,23,04,24,11.30
2013,06,23,04,25,11.30
2013,06,23,04,26,11.30
2013,06,23,04,27,11.30
2013,06,23,04,28,11.30
2013,06,23,04,29,11.30
2013,06,23,04,30,11.30
2013,06,23,04,31,11.30
2013,06,23,04,32,11.30
2013,06,23,04,33,11.30
2013,06,23,04,34,11.20
2013,06,23,04,35,11.20
2013,06,23,04,36,11.20
2013,06,23,04,37,11.20
2013,06,23,04,38,11.20
2013,06,23,04,39,11.20
2013,06,23,04,40,11.20
2013,06,23,04,41,11.20
2013,06,23,04,42,11.20
2013,06,23,04,43,11.20
2013,06,23,04,44,11.20
2013,06,23,04,45,11.10
2013,06,23,04,46,11.10
2013,06,23,04,47,11.10
2013,06,23,04,48,11.10
2013,06,23,04,49,11.10
2013,06,23,04,50,11.00
2013,06,23,04,51,11.00
2013,06,23,04,52,11.00
2013,06,23,04,53,11.00
2013,06,23,04,54,11.00
2013,06,23,04,55,10.90
2013,06,23,04,56,10.90
2013,06,23,04,57,11.00
2013,06,23,04,58,10.90
2013,06,23,04,59,10.90
2013,06,23,05,00,10.90
2013,06,23,05,01,10.90
2013,06,23,05,02,10.90
2013,06,23,05,03,10.90
2013,06,23,05,04,10.90
2013,06,23,05,05,10.90
2013,06,23,05,06,10.90
2013,06,23,05,07,10.90
2013,06,23,05,08,10.90
2013,06,23,05,09,10.80
2013,06,23,05,10,10.80
2013,06,23,05,11,10.80
2013,06,23,05,12,10.80
2013,06,23,05,13,10.80
2013,06,23,05,14,10.80
2013,06,23,05,15,10.80
2013,06,23,05,16,10.80
2013,06,23,05,17,10.80
2013,06,23,05,18,10.80
2013,06,23,05,19,10.80
2013,06,23,05,20,10.80
2013,06,23,05,21,10.80
2013,06,23,05,22,10.80
2013,06,23,05,23,10.80
2013,06,23,05,24,10.80
2013,06,23,05,25,10.80
2013,06,23,05,26,10.90
2013,06,23,05,27,10.90
2013,06,23,05,28,10.90
2013,06,23,05,29,10.90
2013,06,23,05,30,10.90
2013,06,23,05,31,11.00
2013,06,23,05,32,11.00
2013,06,23,05,33,11.00
2013,06,23,05,34,11.00
2013,06,23,05,35,11.00
2013,06,23,05,36,11.00
2013,06,23,05,37,11.00
2013,06,23,05,38,11.00
2013,06,23,05,39,11.00
2013,06,23,05,40,11.00
2013,06,23,05,41,10.90
2013,06,23,05,42,10.90
2013,06,23,05,43,10.90
2013,06,23,05,44,10.90
2013,06,23,05,45,10.90
2013,06,23,05,46,10.90
2013,06,23,05,47,10.90
2013,06,23,05,48,10.90
2013,06,23,05,49,11.00
2013,06,23,05,50,10.90
2013,06,23,05,51,10.90
2013,06,23,05,52,10.90
2013,06,23,05,53,10.90
2013,06,23,05,54,10.90
2013,06,23,05,55,10.90
2013,06,23,05,56,10.90
2013,06,23,05,57,10.90
2013,06,23,05,58,10.90
2013,06,23,05,59,10.90
2013,06,23,06,00,10.90
2013,06,23,06,01,10.90
2013,06,23,06,02,10.90
2013,06,23,06,03,10.90
2013,06,23,06,04,10.90
2013,06,23,06,05,10.90
2013,06,23,06,06,10.90
2013,06,23,06,07,10.90
2013,06,23,06,08,10.90
2013,06,23,06,09,10.90
2013,06,23,06,10,10.90
2013,06,23,06,11,10.90
2013,06,23,06,12,11.00
2013,06,23,06,13,11.00
2013,06,23,06,14,11.00
2013,06,23,06,15,11.00
2013,06,23,06,16,11.10
2013,06,23,06,17,11.10
2013,06,23,06,18,11.10
2013,06,23,06,19,11.20
2013,06,23,06,20,11.20
2013,06,23,06,21,11.30
2013,06,23,06,22,11.30
2013,06,23,06,23,11.30
2013,06,23,06,24,11.40
2013,06,23,06,25,11.40
2013,06,23,06,26,11.40
2013,06,23,06,27,11.40
2013,06,23,06,28,11.40
2013,06,23,06,29,11.40
2013,06,23,06,30,11.40
2013,06,23,06,31,11.40
2013,06,23,06,32,11.40
2013,06,23,06,33,11.40
2013,06,23,06,34,11.40
2013,06,23,06,35,11.40
2013,06,23,06,36,11.50
2013,06,23,06,37,11.50
2013,06,23,06,38,11.50
2013,06,23,06,39,11.60
2013,06,23,06,40,11.60
2013,06,23,06,41,11.60
2013,06,23,06,42,11.70
2013,06,23,06,43,11.70
2013,06,23,06,44,11.70
2013,06,23,06,45,11.80
2013,06,23,06,46,11.80
2013,06,23,06,47,11.90
2013,06,23,06,48,11.90
2013,06,23,06,49,12.00
2013,06,23,06,50,12.10
2013,06,23,06,51,12.10
2013,06,23,06,52,12.20
2013,06,23,06,53,12.30
2013,06,23,06,54,12.30
2013,06,23,06,55,12.40
2013,06,23,06,56,12.40
2013,06,23,06,57,12.50
2013,06,23,06,58,12.60
2013,06,23,06,59,12.70
2013,06,23,07,00,12.80
2013,06,23,07,01,12.90
2013,06,23,07,02,13.00
2013,06,23,07,03,13.10
2013,06,23,07,04,13.20
2013,06,23,07,05,13.40
2013,06,23,07,06,13.50
2013,06,23,07,07,13.60
2013,06,23,07,08,13.70
2013,06,23,07,09,13.80
2013,06,23,07,10,14.00
2013,06,23,07,11,14.10
2013,06,23,07,12,14.10
2013,06,23,07,13,14.20
2013,06,23,07,14,14.40
2013,06,23,07,15,14.50
2013,06,23,07,16,14.60
2013,06,23,07,17,14.70
2013,06,23,07,18,14.80
2013,06,23,07,19,14.90
2013,06,23,07,20,15.00
2013,06,23,07,21,15.00
2013,06,23,07,22,15.10
2013,06,23,07,23,15.10
2013,06,23,07,24,15.10
2013,06,23,07,25,15.10
2013,06,23,07,26,15.10
2013,06,23,07,27,15.00
2013,06,23,07,28,15.00
2013,06,23,07,29,14.90
2013,06,23,07,30,14.90
2013,06,23,07,31,14.90
2013,06,23,07,32,14.80
2013,06,23,07,33,14.80
2013,06,23,07,34,14.80
2013,06,23,07,35,14.70
2013,06,23,07,36,14.70
2013,06,23,07,37,14.70
2013,06,23,07,38,14.70
2013,06,23,07,39,14.70
2013,06,23,07,40,14.70
2013,06,23,07,41,14.70
2013,06,23,07,42,14.70
2013,06,23,07,43,14.70
2013,06,23,07,44,14.70
2013,06,23,07,45,14.70
2013,06,23,07,46,14.70
2013,06,23,07,47,14.70
2013,06,23,07,48,14.70
2013,06,23,07,49,14.70
2013,06,23,07,50,14.60
2013,06,23,07,51,14.60
2013,06,23,07,52,14.60
2013,06,23,07,53,14.60
2013,06,23,07,54,14.60
2013,06,23,07,55,14.60
2013,06,23,07,56,14.60
2013,06,23,07,57,14.70
2013,06,23,07,58,14.70
2013,06,23,07,59,14.70
2013,06,23,08,00,14.70
2013,06,23,08,01,14.70
2013,06,23,08,02,14.80
2013,06,23,08,03,14.80
2013,06,23,08,04,14.80
2013,06,23,08,05,14.90
2013,06,23,08,06,14.90
2013,06,23,08,07,14.90
2013,06,23,08,08,14.90
2013,06,23,08,09,15.00
2013,06,23,08,10,15.00
2013,06,23,08,11,15.00
2013,06,23,08,12,15.10
2013,06,23,08,13,15.10
2013,06,23,08,14,15.20
2013,06,23,08,15,15.20
2013,06,23,08,16,15.20
2013,06,23,08,17,15.30
2013,06,23,08,18,15.30
2013,06,23,08,19,15.30
2013,06,23,08,20,15.40
2013,06,23,08,21,15.40
2013,06,23,08,22,15.40
2013,06,23,08,23,15.50
2013,06,23,08,24,15.60
2013,06,23,08,25,15.60
2013,06,23,08,26,15.60
2013,06,23,08,27,15.60
2013,06,23,08,28,15.60
2013,06,23,08,29,15.60
2013,06,23,08,30,15.60
2013,06,23,08,31,15.60
2013,06,23,08,32,15.60
2013,06,23,08,33,15.60
2013,06,23,08,34,15.60
2013,06,23,08,35,15.60
2013,06,23,08,36,15.70
2013,06,23,08,37,15.70
2013,06,23,08,38,15.70
2013,06,23,08,39,15.80
2013,06,23,08,40,15.80
2013,06,23,08,41,15.80
2013,06,23,08,42,15.90
2013,06,23,08,43,15.90
2013,06,23,08,44,16.00
2013,06,23,08,45,16.00
2013,06,23,08,46,16.10
2013,06,23,08,47,16.20
2013,06,23,08,48,16.20
2013,06,23,08,49,16.20
2013,06,23,08,50,16.30
2013,06,23,08,51,16.30
2013,06,23,08,52,16.40
2013,06,23,08,53,16.40
2013,06,23,08,54,16.40
2013,06,23,08,55,16.50
2013,06,23,08,56,16.50
2013,06,23,08,57,16.60
2013,06,23,08,58,16.60
2013,06,23,08,59,16.70
2013,06,23,09,00,16.70
2013,06,23,09,01,16.70
2013,06,23,09,02,16.70
2013,06,23,09,03,16.80
2013,06,23,09,04,16.80
2013,06,23,09,05,16.80
2013,06,23,09,06,16.80
2013,06,23,09,07,16.80
2013,06,23,09,08,16.80
2013,06,23,09,09,16.80
2013,06,23,09,10,16.80
2013,06,23,09,11,16.80
2013,06,23,09,12,16.80
2013,06,23,09,13,16.90
2013,06,23,09,14,16.90
2013,06,23,09,15,16.90
2013,06,23,09,16,17.00
2013,06,23,09,17,17.00
2013,06,23,09,18,17.10
2013,06,23,09,19,17.10
2013,06,23,09,20,17.00
2013,06,23,09,21,17.00
2013,06,23,09,22,16.90
2013,06,23,09,23,16.90
2013,06,23,09,24,16.90
2013,06,23,09,25,16.90
2013,06,23,09,26,16.90
2013,06,23,09,27,16.90
2013,06,23,09,28,16.80
2013,06,23,09,29,16.80
2013,06,23,09,30,16.70
2013,06,23,09,31,16.60
2013,06,23,09,32,16.50
2013,06,23,09,33,16.40
2013,06,23,09,34,16.30
2013,06,23,09,35,16.30
2013,06,23,09,36,16.20
2013,06,23,09,37,16.20
2013,06,23,09,38,16.20
2013,06,23,09,39,16.20
2013,06,23,09,40,16.20
2013,06,23,09,41,16.20
2013,06,23,09,42,16.20
2013,06,23,09,43,16.20
2013,06,23,09,44,16.30
2013,06,23,09,45,16.30
2013,06,23,09,46,16.30
2013,06,23,09,47,16.30
2013,06,23,09,48,16.30
2013,06,23,09,49,16.30
2013,06,23,09,50,16.40
2013,06,23,09,51,16.40
2013,06,23,09,52,16.50
2013,06,23,09,53,16.60
2013,06,23,09,54,16.60
2013,06,23,09,55,16.70
2013,06,23,09,56,16.70
2013,06,23,09,57,16.80
2013,06,23,09,58,16.80
2013,06,23,09,59,16.90
2013,06,23,10,00,16.90
2013,06,23,10,01,16.90
2013,06,23,10,02,17.00
2013,06,23,10,03,17.00
2013,06,23,10,04,17.10
2013,06,23,10,05,17.20
2013,06,23,10,06,17.30
2013,06,23,10,07,17.30
2013,06,23,10,08,17.30
2013,06,23,10,09,17.30
2013,06,23,10,10,17.30
2013,06,23,10,11,17.30
2013,06,23,10,12,17.20
2013,06,23,10,13,17.20
2013,06,23,10,14,17.20
2013,06,23,10,15,17.10
2013,06,23,10,16,17.10
2013,06,23,10,17,17.10
2013,06,23,10,18,17.10
2013,06,23,10,19,17.10
2013,06,23,10,20,17.20
2013,06,23,10,21,17.20
2013,06,23,10,22,17.20
2013,06,23,10,23,17.20
2013,06,23,10,24,17.20
2013,06,23,10,25,17.20
2013,06,23,10,26,17.30
2013,06,23,10,27,17.30
2013,06,23,10,28,17.30
2013,06,23,10,29,17.30
2013,06,23,10,30,17.30
2013,06,23,10,31,17.30
2013,06,23,10,32,17.30
2013,06,23,10,33,17.30
2013,06,23,10,34,17.30
2013,06,23,10,35,17.30
2013,06,23,10,36,17.30
2013,06,23,10,37,17.30
2013,06,23,10,38,17.30
2013,06,23,10,39,17.30
2013,06,23,10,40,17.40
2013,06,23,10,41,17.40
2013,06,23,10,42,17.50
2013,06,23,10,43,17.50
2013,06,23,10,44,17.50
2013,06,23,10,45,17.50
2013,06,23,10,46,17.60
2013,06,23,10,47,17.60
2013,06,23,10,48,17.70
2013,06,23,10,49,17.70
2013,06,23,10,50,17.70
2013,06,23,10,51,17.70
2013,06,23,10,52,17.70
2013,06,23,10,53,17.80
2013,06,23,10,54,17.80
2013,06,23,10,55,17.80
2013,06,23,10,56,17.80
2013,06,23,10,57,17.80
2013,06,23,10,58,17.90
2013,06,23,10,59,17.90
2013,06,23,11,00,17.90
2013,06,23,11,01,18.00
2013,06,23,11,02,18.00
2013,06,23,11,03,17.90
2013,06,23,11,04,17.90
2013,06,23,11,05,17.90
2013,06,23,11,06,17.90
2013,06,23,11,07,17.90
2013,06,23,11,08,17.90
2013,06,23,11,09,17.90
2013,06,23,11,10,17.90
2013,06,23,11,11,17.90
2013,06,23,11,12,17.90
2013,06,23,11,13,17.90
2013,06,23,11,14,17.90
2013,06,23,11,15,18.00
2013,06,23,11,16,18.00
2013,06,23,11,17,18.10
2013,06,23,11,18,18.10
2013,06,23,11,19,18.10
2013,06,23,11,20,18.20
2013,06,23,11,21,18.20
2013,06,23,11,22,18.20
2013,06,23,11,23,18.20
2013,06,23,11,24,18.20
2013,06,23,11,25,18.20
2013,06,23,11,26,18.10
2013,06,23,11,27,18.10
2013,06,23,11,28,18.10
2013,06,23,11,29,18.00
2013,06,23,11,30,18.00
2013,06,23,11,31,17.90
2013,06,23,11,32,17.90
2013,06,23,11,33,17.90
2013,06,23,11,34,17.90
2013,06,23,11,35,17.80
2013,06,23,11,36,17.80
2013,06,23,11,37,17.70
2013,06,23,11,38,17.80
2013,06,23,11,39,17.80
2013,06,23,11,40,17.80
2013,06,23,11,41,17.80
2013,06,23,11,42,17.80
2013,06,23,11,43,17.70
2013,06,23,11,44,17.70
2013,06,23,11,45,17.70
2013,06,23,11,46,17.70
2013,06,23,11,47,17.70
2013,06,23,11,48,17.70
2013,06,23,11,49,17.70
2013,06,23,11,50,17.70
2013,06,23,11,51,17.70
2013,06,23,11,52,17.70
2013,06,23,11,53,17.80
2013,06,23,11,54,17.80
2013,06,23,11,55,17.80
2013,06,23,11,56,17.80
2013,06,23,11,57,17.90
2013,06,23,11,58,17.90
2013,06,23,11,59,17.90
2013,06,23,12,00,17.90
2013,06,23,12,01,18.00
2013,06,23,12,02,18.00
2013,06,23,12,03,18.00
2013,06,23,12,04,18.10
2013,06,23,12,05,18.10
2013,06,23,12,06,18.10
2013,06,23,12,07,18.10
2013,06,23,12,08,18.20
2013,06,23,12,09,18.20
2013,06,23,12,10,18.30
2013,06,23,12,11,18.30
2013,06,23,12,12,18.40
2013,06,23,12,13,18.50
2013,06,23,12,14,18.50
2013,06,23,12,15,18.60
2013,06,23,12,16,18.70
2013,06,23,12,17,18.60
2013,06,23,12,18,18.60
2013,06,23,12,19,18.50
2013,06,23,12,20,18.50
2013,06,23,12,21,18.50
2013,06,23,12,22,18.50
2013,06,23,12,23,18.40
2013,06,23,12,24,18.40
2013,06,23,12,25,18.40
2013,06,23,12,26,18.40
2013,06,23,12,27,18.40
2013,06,23,12,28,18.40
2013,06,23,12,29,18.30
2013,06,23,12,30,18.30
2013,06,23,12,31,18.30
2013,06,23,12,32,18.30
2013,06,23,12,33,18.30
2013,06,23,12,34,18.30
2013,06,23,12,35,18.30
2013,06,23,12,36,18.30
2013,06,23,12,37,18.30
2013,06,23,12,38,18.20
2013,06,23,12,39,18.20
2013,06,23,12,40,18.20
2013,06,23,12,41,18.10
2013,06,23,12,42,18.10
2013,06,23,12,43,18.10
2013,06,23,12,44,18.10
2013,06,23,12,45,18.10
2013,06,23,12,46,18.10
2013,06,23,12,47,18.00
2013,06,23,12,48,17.90
2013,06,23,12,49,17.90
2013,06,23,12,50,17.80
2013,06,23,12,51,17.80
2013,06,23,12,52,17.70
2013,06,23,12,53,17.70
2013,06,23,12,54,17.70
2013,06,23,12,55,17.60
2013,06,23,12,56,17.60
2013,06,23,12,57,17.60
2013,06,23,12,58,17.60
2013,06,23,12,59,17.60
2013,06,23,13,00,17.60
2013,06,23,13,01,17.60
2013,06,23,13,02,17.50
2013,06,23,13,03,17.50
2013,06,23,13,04,17.50
2013,06,23,13,05,17.50
2013,06,23,13,06,17.50
2013,06,23,13,07,17.50
2013,06,23,13,08,17.50
2013,06,23,13,09,17.50
2013,06,23,13,10,17.50
2013,06,23,13,11,17.50
2013,06,23,13,12,17.50
2013,06,23,13,13,17.50
2013,06,23,13,14,17.50
2013,06,23,13,15,17.40
2013,06,23,13,16,17.40
2013,06,23,13,17,17.40
2013,06,23,13,18,17.40
2013,06,23,13,19,17.40
2013,06,23,13,20,17.40
2013,06,23,13,21,17.40
2013,06,23,13,22,17.40
2013,06,23,13,23,17.30
2013,06,23,13,24,17.30
2013,06,23,13,25,17.30
2013,06,23,13,26,17.30
2013,06,23,13,27,17.30
2013,06,23,13,28,17.30
2013,06,23,13,29,17.30
2013,06,23,13,30,17.30
2013,06,23,13,31,17.30
2013,06,23,13,32,17.20
2013,06,23,13,33,17.30
2013,06,23,13,34,17.30
2013,06,23,13,35,17.30
2013,06,23,13,36,17.30
2013,06,23,13,37,17.30
2013,06,23,13,38,17.30
2013,06,23,13,39,17.30
2013,06,23,13,40,17.30
2013,06,23,13,41,17.30
2013,06,23,13,42,17.30
2013,06,23,13,43,17.30
2013,06,23,13,44,17.30
2013,06,23,13,45,17.40
2013,06,23,13,46,17.40
2013,06,23,13,47,17.40
2013,06,23,13,48,17.40
2013,06,23,13,49,17.40
2013,06,23,13,50,17.30
2013,06,23,13,51,17.30
2013,06,23,13,52,17.30
2013,06,23,13,53,17.20
2013,06,23,13,54,17.20
2013,06,23,13,55,17.20
2013,06,23,13,56,17.20
2013,06,23,13,57,17.20
2013,06,23,13,58,17.10
2013,06,23,13,59,17.10
2013,06,23,14,00,17.10
2013,06,23,14,01,17.00
2013,06,23,14,02,17.00
2013,06,23,14,03,17.00
2013,06,23,14,04,17.00
2013,06,23,14,05,17.00
2013,06,23,14,06,17.00
2013,06,23,14,07,17.00
2013,06,23,14,08,17.00
2013,06,23,14,09,17.00
2013,06,23,14,10,16.90
2013,06,23,14,11,16.90
2013,06,23,14,12,16.90
2013,06,23,14,13,16.90
2013,06,23,14,14,16.90
2013,06,23,14,15,16.90
2013,06,23,14,16,16.90
2013,06,23,14,17,16.90
2013,06,23,14,18,16.90
2013,06,23,14,19,16.80
2013,06,23,14,20,16.80
2013,06,23,14,21,16.80
2013,06,23,14,22,16.80
2013,06,23,14,23,16.80
2013,06,23,14,24,16.80
2013,06,23,14,25,16.80
2013,06,23,14,26,16.70
2013,06,23,14,27,16.70
2013,06,23,14,28,16.70
2013,06,23,14,29,16.70
2013,06,23,14,30,16.70
2013,06,23,14,31,16.70
2013,06,23,14,32,16.70
2013,06,23,14,33,16.70
2013,06,23,14,34,16.60
2013,06,23,14,35,16.60
2013,06,23,14,36,16.60
2013,06,23,14,37,16.60
2013,06,23,14,38,16.60
2013,06,23,14,39,16.60
2013,06,23,14,40,16.60
2013,06,23,14,41,16.60
2013,06,23,14,42,16.60
2013,06,23,14,43,16.60
2013,06,23,14,44,16.60
2013,06,23,14,45,16.60
2013,06,23,14,46,16.60
2013,06,23,14,47,16.50
2013,06,23,14,48,16.50
2013,06,23,14,49,16.50
2013,06,23,14,50,16.50
2013,06,23,14,51,16.60
2013,06,23,14,52,16.60
2013,06,23,14,53,16.60
2013,06,23,14,54,16.60
2013,06,23,14,55,16.60
2013,06,23,14,56,16.60
2013,06,23,14,57,16.60
2013,06,23,14,58,16.70
2013,06,23,14,59,16.70
2013,06,23,15,00,16.80
2013,06,23,15,01,16.80
2013,06,23,15,02,16.80
2013,06,23,15,03,16.90
2013,06,23,15,04,16.90
2013,06,23,15,05,16.90
2013,06,23,15,06,17.00
2013,06,23,15,07,17.00
2013,06,23,15,08,17.00
2013,06,23,15,09,17.00
2013,06,23,15,10,17.00
2013,06,23,15,11,17.10
2013,06,23,15,12,17.10
2013,06,23,15,13,17.10
2013,06,23,15,14,17.10
2013,06,23,15,15,17.20
2013,06,23,15,16,17.20
2013,06,23,15,17,17.20
2013,06,23,15,18,17.20
2013,06,23,15,19,17.20
2013,06,23,15,20,17.20
2013,06,23,15,21,17.20
2013,06,23,15,22,17.30
2013,06,23,15,23,17.30
2013,06,23,15,24,17.30
2013,06,23,15,25,17.30
2013,06,23,15,26,17.20
2013,06,23,15,27,17.20
2013,06,23,15,28,17.20
2013,06,23,15,29,17.20
2013,06,23,15,30,17.20
2013,06,23,15,31,17.10
2013,06,23,15,32,17.10
2013,06,23,15,33,17.10
2013,06,23,15,34,17.10
2013,06,23,15,35,17.10
2013,06,23,15,36,17.00
2013,06,23,15,37,17.00
2013,06,23,15,38,16.90
2013,06,23,15,39,16.90
2013,06,23,15,40,16.80
2013,06,23,15,41,16.80
2013,06,23,15,42,16.80
2013,06,23,15,43,16.80
2013,06,23,15,44,16.80
2013,06,23,15,45,16.80
2013,06,23,15,46,16.80
2013,06,23,15,47,16.80
2013,06,23,15,48,16.90
2013,06,23,15,49,16.90
2013,06,23,15,50,16.90
2013,06,23,15,51,16.90
2013,06,23,15,52,16.90
2013,06,23,15,53,16.90
2013,06,23,15,54,16.90
2013,06,23,15,55,16.90
2013,06,23,15,56,16.90
2013,06,23,15,57,16.90
2013,06,23,15,58,16.90
2013,06,23,15,59,17.00
2013,06,23,16,00,17.00
2013,06,23,16,01,17.00
2013,06,23,16,02,17.00
2013,06,23,16,03,17.00
2013,06,23,16,04,17.00
2013,06,23,16,05,17.00
2013,06,23,16,06,17.00
2013,06,23,16,07,17.00
2013,06,23,16,08,17.00
2013,06,23,16,09,17.00
2013,06,23,16,10,17.00
2013,06,23,16,11,17.00
2013,06,23,16,12,17.00
2013,06,23,16,13,17.00
2013,06,23,16,14,17.10
2013,06,23,16,15,17.10
2013,06,23,16,16,17.10
2013,06,23,16,17,17.10
2013,06,23,16,18,17.10
2013,06,23,16,19,17.10
2013,06,23,16,20,17.10
2013,06,23,16,21,17.10
2013,06,23,16,22,17.00
2013,06,23,16,23,17.00
2013,06,23,16,24,16.90
2013,06,23,16,25,16.90
2013,06,23,16,26,16.90
2013,06,23,16,27,16.80
2013,06,23,16,28,16.80
2013,06,23,16,29,16.80
2013,06,23,16,30,16.80
2013,06,23,16,31,16.80
2013,06,23,16,32,16.80
2013,06,23,16,33,16.80
2013,06,23,16,34,16.80
2013,06,23,16,35,16.80
2013,06,23,16,36,16.90
2013,06,23,16,37,16.90
2013,06,23,16,38,16.90
2013,06,23,16,39,16.90
2013,06,23,16,40,16.90
2013,06,23,16,41,16.90
2013,06,23,16,42,16.80
2013,06,23,16,43,16.80
2013,06,23,16,44,16.80
2013,06,23,16,45,16.70
2013,06,23,16,46,16.70
2013,06,23,16,47,16.70
2013,06,23,16,48,16.70
2013,06,23,16,49,16.60
2013,06,23,16,50,16.60
2013,06,23,16,51,16.60
2013,06,23,16,52,16.60
2013,06,23,16,53,16.60
2013,06,23,16,54,16.60
2013,06,23,16,55,16.50
2013,06,23,16,56,16.50
2013,06,23,16,57,16.60
2013,06,23,16,58,16.60
2013,06,23,16,59,16.60
2013,06,23,17,00,16.60
2013,06,23,17,01,16.60
2013,06,23,17,02,16.60
2013,06,23,17,03,16.60
2013,06,23,17,04,16.60
2013,06,23,17,05,16.60
2013,06,23,17,06,16.60
2013,06,23,17,07,16.60
2013,06,23,17,08,16.60
2013,06,23,17,09,16.60
2013,06,23,17,10,16.60
2013,06,23,17,11,16.70
2013,06,23,17,12,16.70
2013,06,23,17,13,16.70
2013,06,23,17,14,16.70
2013,06,23,17,15,16.70
2013,06,23,17,16,16.70
2013,06,23,17,17,16.70
2013,06,23,17,18,16.70
2013,06,23,17,19,16.70